QB50P1

Last updated on Sat Apr 13 2024 01:02:57 GMT+0100 (British Summer Time)

1 40025U 14033R 24103.40551750 .00006856 00000+0 58012-3 0 9992 2 40025 98.0360 62.0911 0010796 23.0930 337.0775 14.98327996533021
UTC large
Height (km)
Speed (km/s)
/
Latitude / Longitude
Inclination (degrees)
Orbital Period (minutes)
Azimuth
Elevation
Range (km)
Doppler Factor

Next 0 passes for location: London (51.5072 / 0.1276)

Sorry there are no passes over London.